THOR 6

Last updated on Sun Apr 12 2026 00:02:52 GMT+0000 (Coordinated Universal Time)

1 36033U 09058B 26101.37788977 -.00000008 00000+0 00000+0 0 9990 2 36033 0.0251 113.5254 0002348 299.4643 281.7970 1.00272030 60331
UTC large
Height (km)
Speed (km/s)
/
Latitude / Longitude
Inclination (degrees)
Orbital Period (minutes)
Azimuth
Elevation
Range (km)
Doppler Factor

Next 0 passes for location: London (51.5072 / 0.1276)

Sorry there are no passes over London.
THOR 6